Simultaneous Nadir Overpasses (SNOs) Predictions

Prediction of SNOs between GOES-17 and NOAA-20 Satellite Orbit:

Table of predicted SNOs for the next 14.0 days since TLE Epoch: 5/4/2024
Index Date Time (GOES-17) GOES-17 Lat,Lon NOAA-20 Lat,Lon Distance(km) Time Diff (sec)
1 05/04/2024 20:28:33 -0.00,-104.70 -0.35,-106.13 164.02 80
2 05/05/2024 20:12:28 -0.00,-104.70 0.70,-101.60 353.20 80
3 05/07/2024 08:34:13 0.00,-104.71 0.49,-106.86 245.62 80
4 05/08/2024 08:12:47 0.00,-104.71 -0.51,-102.33 271.35 80
5 05/09/2024 20:34:41 0.00,-104.70 -0.65,-107.63 333.33 80
6 05/10/2024 20:18:34 0.00,-104.71 0.35,-103.09 183.61 80
7 05/12/2024 08:40:21 -0.01,-104.72 0.78,-108.37 415.38 80
8 05/13/2024 08:18:54 -0.02,-104.72 -0.22,-103.83 101.54 80
9 05/15/2024 20:24:41 0.00,-104.72 0.03,-104.59 15.09 80
